カタログに戻る

NOAA 17 DEB

運用中PO
NORAD 48719·DEBRIS·🇺🇸 United States

打ち上げ Jun 24, 2002 から Vandenberg Space Force Base

Loading…

次のパス (今後24時間)

TLE

最新Source: Space-Track

元期: Sep 14, 2026, 03:05 UTC

1 48719U 02032BC  26257.12858397  .00000375  00000-0  35765-3 0  9995
2 48719  98.3942 317.9196 0320367 263.7804  92.6765 13.65323470273510

AllMySatでNOAA 17 DEBをリアルタイム追跡

Download on the App Store